This demonstration page uses our WeatherBlox Daily Observations layout. Learn more.

Left ArrowRight Arrow

Hourly Observations for December 16, 2017

Temp ( °F °C ) Dew Point ( °F °C ) Humidity (%) Winds ( mph kmh ) Pressure ( in mb ) Visibility ( mi km ) Precip ( " mm )
12:53 am 00:53 Clear 30 -1.1 24 -4.4 79 79 WSW 3 6 30.24 1024 10 16 0.00 0.00
1:53 am 01:53 Clear 30 -1.1 24 -4.4 79 79 WSW 3 6 30.24 1024 10 16 0.00 0.00
2:53 am 02:53 Clear 29 -1.7 24 -4.4 82 82 WNW 5 7 30.25 1024 10 16 0.00 0.00
3:53 am 03:53 Clear 27 -2.8 24 -4.4 89 89 WNW 3 6 30.26 1025 10 16 0.00 0.00
4:53 am 04:53 Clear 29 -1.7 24 -4.4 82 82 WSW 3 6 30.25 1025 10 16 0.00 0.00
5:53 am 05:53 Clear 28 -2.2 23 -5 81 81 Calm 30.26 1025 10 16 0.00 0.00
6:53 am 06:53 Clear 28 -2.2 23 -5 81 81 Calm 30.28 1025 10 16 0.00 0.00
7:53 am 07:53 Sunny 28 -2.2 23 -5 81 81 SSE 3 6 30.29 1026 10 16 0.00 0.00
8:53 am 08:53 Sunny 31 -0.6 25 -3.9 79 79 SW 5 7 30.31 1026 10 16 0.00 0.00
9:53 am 09:53 Sunny 35 1.7 27 -2.8 72 72 Calm 30.33 1027 10 16 0.00 0.00
10:53 am 10:53 Sunny 41 5 26 -3.3 55 55 W 5 7 30.33 1027 10 16 0.00 0.00
11:53 am 11:53 Sunny 46 7.8 26 -3.3 46 46 WNW 8 13 30.30 1026 10 16 0.00 0.00
12:53 pm 12:53 Sunny 48 8.9 27 -2.8 44 44 VRB 3 6 30.28 1026 10 16 0.00 0.00
1:53 pm 13:53 Sunny 49 9.4 27 -2.8 43 43 Calm 30.25 1024 10 16 0.00 0.00
2:53 pm 14:53 Sunny 52 11.1 27 -2.8 38 38 Calm 30.25 1024 10 16 0.00 0.00
3:53 pm 15:53 Sunny 52 11.1 26 -3.3 37 37 NW 5 7 30.24 1024 10 16 0.00 0.00
4:53 pm 16:53 Sunny 51 10.6 26 -3.3 38 38 NW 3 6 30.24 1024 10 16 0.00 0.00
5:53 pm 17:53 Clear 46 7.8 28 -2.2 50 50 Calm 30.25 1025 10 16 0.00 0.00
6:53 pm 18:53 Clear 40 4.4 30 -1.1 68 68 Calm 30.27 1025 10 16 0.00 0.00
7:53 pm 19:53 Clear 37 2.8 30 -1.1 76 76 Calm 30.28 1025 10 16 0.00 0.00
8:53 pm 20:53 Clear 34 1.1 31 -0.6 89 89 Calm 30.28 1025 10 16 0.00 0.00
9:53 pm 21:53 Clear 32 0 29 -1.7 88 88 Calm 30.30 1026 10 16 0.00 0.00
10:53 pm 22:53 Clear 32 0 30 -1.1 92 92 Calm 30.30 1026 10 16 0.00 0.00
11:53 pm 23:53 Clear 31 -0.6 29 -1.7 92 92 Calm 30.29 1026 10 16 0.00 0.00

Powered by AerisWeather